SCP
0 0 0 0 0 0 0 0 0 0 0 0 0 0 0 0 0 0 0 0 0 0 0 0 0 0 0 0 0 0 0 0 0 0 0 0 0 1 0 1 1 1 4
0 0 0 0 0 0 0 0 0 0 0 0 0 0 0 0 0 0 0 0 0 0 0 0 0 0 0 0 0 0 0 0 0 0 0 0 0 1 1 1 1 1 1
0 0 0 0 0 0 0 0 0 0 0 0 0 0 0 0 0 0 0 0 0 0 0 0 0 0 0 0 0 0 0 0 0 0 0 0 0 1 0 1 1 2 2
0 0 0 0 0 0 0 0 0 0 0 0 0 0 0 0 0 0 0 0 0 0 0 0 0 0 0 0 0 0 0 0 0 0 0 1 0 0 0 0 1 5 2
0 0 0 0 0 0 0 0 0 0 0 0 0 0 0 0 0 0 0 0 0 0 0 0 0 0 0 0 0 0 0 0 0 0 0 0 0 1 1 0 1 0 0
0 0 0 0 0 0 0 0 0 0 0 0 0 0 0 0 0 0 0 0 0 0 0 0 0 0 0 0 0 0 0 0 0 0 0 0 0 0 0 0 1 0 0
0 0 0 0 0 0 0 0 0 0 0 0 0 0 0 0 0 0 0 0 0 0 0 0 0 0 0 0 0 0 0 0 0 0 0 0 0 0 0 0 0 0 0
0 0 0 0 0 0 0 0 0 0 0 0 0 0 0 0 0 0 0 0 0 0 0 0 0 0 0 0 0 0 0 0 0 0 0 0 0 0 0 0 0 0 -0
0 0 0 0 0 0 0 0 0 0 0 0 0 0 0 0 0 0 0 0 0 0 0 0 0 0 0 0 0 0 0 0 0 0 0 0 0 0 0 0 0 0 0
0 0 0 0 0 0 0 0 0 0 0 0 0 0 0 0 0 0 0 0 0 0 0 0 0 0 0 0 0 0 0 0 0 0 0 0 0 0 0 0 0 0 0
0 0 0 0 0 0 0 0 0 0 0 0 0 0 0 0 0 0 0 0 0 0 0 0 0 0 0 0 0 0 0 0 0 0 0 0 0 0 0 0 0 0 0
0 0 0 0 0 0 0 0 0 0 0 0 0 0 0 0 0 0 0 0 0 0 0 0 0 0 0 0 0 0 -0 -0 0 0 0 0 0 0 0 0 0 0 0
0 0 0 0 0 0 0 0 0 0 0 0 0 0 0 0 0 0 0 0 0 0 0 0 0 0 0 0 0 0 -0 -0 0 0 0 0 0 0 0 0 0 0 0
0 0 0 0 0 0 0 0 0 0 0 0 0 0 0 0 0 0 0 0 0 0 0 0 0 0 0 0 0 0 0 0 0 0 0 0 0 0 0 0 0 0 0
0 0 0 0 0 0 0 0 0 0 0 0 0 0 0 0 0 0 0 0 0 0 0 0 -0 0 0 0 0 0 0 0 0 0 0 0 0 0 0 0 0 0 0
0 0 0 0 0 0 0 0 0 0 0 0 0 0 0 0 0 0 -0 -0 0 0 -0 -0 -0 0 0 -0 -0 -0 -0 -0 0 0 0 0 0 0 0 0 0 0 0
0 0 0 0 0 0 0 0 0 0 0 0 0 -0 -0 0 0 0 0 0 0 0 0 0 0 0 0 -0 -0 -0 -0 -0 -0 0 0 0 0 0 0 0 0 0 0
0 0 0 0 0 0 0 0 0 0 0 -0 0 0 -0 -0 -0 -0 -0 -0 -0 -0 0 0 0 0 0 0 -0 -0 -0 0 -0 -0 -0 -0 -0 0 0 0 0 0 0
0 0 0 0 0 0 -0 -0 0 0 0 -0 -0 -0 -0 -0 -0 -0 -0 -0 -0 -0 -0 -0 0 0 0 0 0 -0 0 0 0 0 -0 -0 -0 -0 -0 -0 -0 0 0
0 0 0 0 0 -0 -0 0 -0 -0 -0 -0 -0 -0 -0 -0 -0 -0 -0 -0 -0 -0 -0 0 0 0 0 0 -0 -0 -0 0 0 0 0 -0 -0 -0 -0 -0 0 0 0
0 0 0 -0 -0 0 -0 -0 -0 -0 -0 -0 -0 0 0 0 -0 0 -0 0 0 0 0 0 0 0 0 0 -0 -0 0 0 0 0 0 0 -0 -0 -0 0 0 0 0
0 0 -0 0 -0 0 -0 -0 -0 -0 -0 0 0 0 -0 -0 0 0 0 0 -0 0 0 0 0 0 0 0 0 0 0 0 0 0 0 0 0 0 -0 0 0 0 0
0 0 0 -0 0 -0 -0 -0 0 -0 -0 0 0 0 0 0 0 0 0 0 -0 -0 0 0 0 0 0 0 0 0 -0 -0 -0 0 0 -0 -0 0 0 0 0 0 0
-0 0 -0 0 0 -0 -0 -0 -0 -0 -0 0 0 0 -0 0 -0 -0 -0 -0 -0 -0 -0 -0 -0 0 0 0 0 -0 0 -0 0 0 -0 -0 -0 0 0 0 0 0 0
0 -0 -0 -0 -0 -0 -0 -0 -0 -0 -0 -0 0 -0 0 -0 -0 -0 -0 0 0 -0 -0 -0 0 0 0 -0 0 -0 0 0 0 0 0 0 0 0 0 0 0 0 0
-0 0 -0 -0 0 0 0 0 0 0 0 -0 -0 0 -0 -0 -0 0 -0 0 0 0 -0 -0 0 0 0 0 0 0 0 0 0 0 0 0 0 0 0 0 0 0 0
Wind_Speed_500mb
30 28 23 17 11 7 5 7 11 21 28 27 32 35 39 41 44 46 48 45 48 53 50 52 54 53 55 57 58 57 55 56 54 58 61 63 58 64 84 72 68 44 42
30 28 22 17 9 2 4 7 13 23 31 28 34 33 37 43 48 47 52 50 61 49 56 66 60 66 62 62 61 56 55 58 50 54 58 56 57 53 63 87 70 77 78
31 30 24 17 7 4 5 9 16 25 33 32 34 38 42 48 51 53 61 57 56 62 68 72 69 61 63 65 63 60 62 55 46 51 49 40 40 48 54 59 71 62 46
33 26 23 16 8 6 7 13 18 23 24 31 36 41 49 57 59 63 61 65 66 69 65 54 60 73 71 64 69 62 56 55 59 51 46 51 58 52 45 42 42 38 29
22 22 20 11 10 9 14 17 20 24 29 34 39 46 53 58 61 63 66 68 68 53 56 71 73 64 63 64 70 71 64 50 44 51 48 51 49 49 49 57 48 50 60
22 17 15 13 15 18 19 23 26 26 35 39 44 50 56 61 62 64 63 62 63 65 61 61 63 68 65 63 59 56 52 47 44 50 46 46 47 46 41 36 38 43 36
21 20 21 23 18 25 25 27 30 35 38 44 49 54 58 60 60 57 64 64 59 57 58 60 69 61 58 54 52 49 45 39 38 43 44 46 38 36 39 38 37 39 49
21 23 23 24 28 31 24 33 35 36 44 51 57 59 59 59 57 65 60 56 59 61 65 58 57 50 51 46 44 43 36 33 33 39 41 39 40 35 31 28 27 35 39
19 24 26 31 31 28 32 33 39 43 48 56 61 64 61 59 66 57 59 58 61 58 57 51 45 48 41 40 37 33 34 33 31 36 35 34 31 36 31 25 21 16 9
19 27 29 30 32 29 41 45 41 40 43 58 62 66 56 60 53 51 50 53 56 55 42 45 41 39 37 35 26 30 29 31 28 27 24 22 23 24 27 19 14 15 14
29 31 30 34 42 50 52 51 40 41 54 57 66 61 63 49 46 49 50 45 51 46 41 36 44 38 35 32 28 24 26 27 26 23 22 15 16 15 14 19 15 14 16
33 41 45 50 52 50 47 43 45 48 42 57 63 59 50 46 51 55 45 42 45 37 35 33 36 32 31 30 28 26 25 27 23 18 17 16 12 12 12 13 17 15 10
41 45 48 48 50 56 54 50 38 43 53 57 54 53 48 54 46 41 40 40 33 32 30 31 28 28 23 24 23 27 26 23 22 20 18 15 15 17 15 12 14 16 16
52 49 52 53 51 50 48 45 43 47 46 47 44 38 44 45 37 32 32 31 29 26 20 24 26 23 26 29 30 30 26 24 22 20 18 11 12 16 13 11 14 15 18
44 53 60 64 66 61 54 47 40 54 40 35 38 36 43 22 22 23 26 28 27 23 25 28 26 24 22 30 29 18 16 19 20 16 13 9 7 10 11 14 14 16 15
56 60 61 64 62 52 48 40 42 31 38 31 29 33 21 20 21 21 20 24 23 21 22 20 17 21 28 27 28 20 21 22 20 17 18 15 12 12 9 12 11 15 19
56 58 59 58 51 50 45 33 24 40 26 29 17 16 18 25 25 23 21 23 19 17 19 18 15 19 24 28 20 27 20 27 29 34 31 35 35 33 30 22 12 9 8
52 52 46 49 44 40 29 25 24 25 17 10 14 19 23 23 20 18 17 17 14 16 17 15 18 17 24 27 23 18 13 24 23 28 22 29 32 30 24 32 29 18 12
48 39 41 41 36 36 34 16 14 9 9 14 18 21 19 22 18 17 20 20 19 19 19 18 18 17 18 20 22 26 17 16 24 21 22 22 20 24 30 31 27 20 23
38 43 39 36 29 22 17 16 20 8 15 16 18 19 21 22 23 20 20 22 20 22 21 18 24 22 24 24 15 16 13 16 20 23 21 20 22 21 22 18 11 16 19
36 34 30 30 25 16 16 11 11 14 15 15 17 20 28 20 28 28 17 21 24 26 26 23 23 22 21 22 19 17 21 20 19 15 18 21 26 31 30 16 15 24 17
34 28 25 22 25 27 14 16 18 20 15 14 18 21 26 23 22 26 23 25 27 30 26 23 24 22 21 24 25 27 22 20 16 18 19 26 27 30 23 21 26 30 22
25 19 16 21 16 16 15 18 20 18 19 22 23 23 29 28 25 25 26 27 31 32 31 28 25 22 21 28 31 28 23 23 15 12 19 22 15 20 25 21 24 32 26
16 12 18 17 15 17 16 16 17 22 20 19 18 19 20 20 24 24 28 27 30 29 30 25 26 24 22 20 24 24 28 24 19 14 17 19 16 20 21 24 29 32 34
9 17 9 12 12 14 17 15 17 19 20 19 17 21 21 15 17 24 28 27 40 32 27 27 31 34 22 21 24 23 20 15 10 9 7 14 21 26 31 32 36 37 39
22 8 11 6 12 14 16 17 19 20 24 20 21 19 21 23 18 23 9 29 33 26 25 25 28 35 30 24 20 19 18 20 18 19 20 25 30 30 32 37 39 41 42
Wind_Direction_500mb
195 190 191 192 172 124 72 25 9 342 351 356 347 339 331 330 327 321 318 314 311 314 309 312 309 308 306 301 303 302 300 303 305 302 297 299 279 275 256 262 257 246 239
185 197 201 204 189 161 15 14 3 340 343 346 341 335 330 323 321 319 314 306 309 304 305 306 303 305 301 301 301 298 297 295 296 298 301 307 301 275 264 254 263 255 248
202 196 205 212 217 269 343 345 350 335 339 335 339 327 323 321 318 312 307 308 303 303 302 300 309 304 303 299 293 297 291 288 291 293 292 299 287 304 287 259 256 246 246
202 201 208 224 237 268 315 328 341 342 339 337 328 322 321 315 309 312 306 303 304 302 306 302 296 297 300 296 299 288 288 283 289 291 289 290 294 295 292 269 258 244 260
197 206 219 227 254 279 295 317 325 331 329 327 323 318 314 311 310 307 304 303 309 303 304 303 305 300 295 293 289 288 286 285 283 282 289 295 302 294 280 278 277 278 252
209 219 230 247 263 281 293 303 314 320 324 322 321 319 315 313 312 309 307 307 303 302 306 302 298 299 297 297 297 292 286 283 288 286 290 290 298 301 301 306 294 281 270
226 235 244 259 268 285 288 304 311 318 321 323 323 321 317 314 314 311 310 307 304 309 301 301 306 308 308 305 301 293 292 285 290 288 287 281 284 290 290 296 293 286 281
251 251 276 284 288 296 306 304 310 315 321 324 323 321 318 316 312 312 305 307 310 308 307 308 312 310 315 307 299 301 296 292 299 300 281 284 279 277 291 293 299 304 301
261 278 287 288 295 294 293 299 307 312 318 323 322 321 318 313 311 308 312 313 315 318 314 315 314 319 314 315 311 314 306 302 304 292 288 281 282 276 270 291 298 303 306
290 282 280 292 304 309 299 304 302 305 320 323 320 319 314 314 310 313 318 316 321 320 319 316 321 322 316 315 304 303 301 311 311 302 300 296 295 296 280 272 293 277 260
316 311 327 315 305 307 309 300 300 314 321 319 320 317 313 312 306 318 315 316 317 321 320 320 319 318 309 314 312 313 309 312 313 318 314 320 319 310 292 278 273 265 263
308 312 308 305 305 319 330 318 314 314 324 318 315 314 308 313 313 318 319 316 318 325 318 314 322 326 321 323 326 312 308 309 309 307 308 311 300 313 300 288 279 268 234
313 314 316 322 323 319 322 307 311 320 320 320 315 305 309 313 321 319 320 314 319 322 329 333 342 341 341 334 330 336 325 315 311 306 297 307 324 309 307 302 295 257 249
319 326 327 323 324 329 323 309 316 318 325 315 310 323 317 320 328 335 329 328 322 333 12 12 15 4 1 359 347 340 348 346 333 327 314 330 307 299 299 330 286 285 258
336 331 326 321 314 317 320 319 318 315 317 312 317 319 321 340 334 333 347 7 18 2 349 324 313 330 355 345 344 345 354 10 11 29 86 44 339 327 317 293 288 273 265
334 327 323 318 317 314 314 316 320 317 315 319 316 317 337 339 335 331 340 348 341 356 358 353 9 17 15 25 28 37 29 12 31 45 36 27 19 6 341 321 305 292 268
331 328 326 322 323 316 312 319 315 312 315 323 347 339 327 327 329 325 333 336 342 3 5 13 30 31 27 18 20 53 44 50 55 63 65 60 52 50 47 33 5 340 333
335 331 332 332 329 330 325 309 317 317 341 15 339 327 331 340 345 347 344 353 358 0 358 2 17 38 23 28 36 36 61 43 56 55 56 55 47 39 34 31 17 38 44
337 334 332 333 333 329 326 342 325 52 7 337 342 348 354 355 4 10 3 4 14 7 5 15 26 26 26 24 25 39 52 42 46 55 66 59 39 38 39 22 15 25 71
335 336 337 346 344 347 357 355 77 16 355 352 354 350 13 13 357 350 358 8 19 10 17 20 44 39 42 31 35 33 39 48 48 55 49 30 22 15 12 32 31 40 64
334 338 348 3 356 3 63 58 8 348 347 357 9 16 20 9 5 9 15 22 21 21 31 34 30 34 32 31 21 28 41 42 50 42 21 16 9 358 359 19 98 90 76
343 348 358 2 70 48 24 3 10 6 8 25 25 23 9 7 6 8 22 18 21 24 25 31 30 29 27 14 29 38 43 36 36 37 25 3 16 18 39 72 103 92 97
342 357 19 83 19 23 25 21 19 30 20 32 33 25 16 15 13 22 29 26 26 21 17 25 27 20 16 7 18 6 10 25 31 40 30 29 45 31 53 77 105 105 105
353 14 90 35 26 31 32 26 20 17 22 25 20 12 3 12 27 28 37 32 24 17 13 13 25 7 13 4 9 8 15 359 7 38 35 27 53 67 80 86 105 119 116
17 103 32 30 46 30 29 22 5 1 0 358 352 7 358 13 37 37 43 29 17 24 34 26 7 357 351 344 350 0 7 10 20 8 37 60 66 71 85 98 108 115 114
103 82 74 26 14 30 19 4 358 354 352 358 13 3 349 10 28 24 7 28 30 30 30 32 28 25 32 29 27 30 42 59 71 73 72 73 76 73 85 100 109 111 115
Wind_Speed_850mb
30 28 23 17 11 7 5 7 11 21 28 27 32 35 39 41 44 46 48 45 48 53 50 52 54 53 55 57 58 57 55 56 54 58 61 63 58 64 84 72 68 44 42
30 28 22 17 9 2 4 7 13 23 31 28 34 33 37 43 48 47 52 50 61 49 56 66 60 66 62 62 61 56 55 58 50 54 58 56 57 53 63 87 70 77 78
31 30 24 17 7 4 5 9 16 25 33 32 34 38 42 48 51 53 61 57 56 62 68 72 69 61 63 65 63 60 62 55 46 51 49 40 40 48 54 59 71 62 46
33 26 23 16 8 6 7 13 18 23 24 31 36 41 49 57 59 63 61 65 66 69 65 54 60 73 71 64 69 62 56 55 59 51 46 51 58 52 45 42 42 38 29
22 22 20 11 10 9 14 17 20 24 29 34 39 46 53 58 61 63 66 68 68 53 56 71 73 64 63 64 70 71 64 50 44 51 48 51 49 49 49 57 48 50 60
22 17 15 13 15 18 19 23 26 26 35 39 44 50 56 61 62 64 63 62 63 65 61 61 63 68 65 63 59 56 52 47 44 50 46 46 47 46 41 36 38 43 36
21 20 21 23 18 25 25 27 30 35 38 44 49 54 58 60 60 57 64 64 59 57 58 60 69 61 58 54 52 49 45 39 38 43 44 46 38 36 39 38 37 39 49
21 23 23 24 28 31 24 33 35 36 44 51 57 59 59 59 57 65 60 56 59 61 65 58 57 50 51 46 44 43 36 33 33 39 41 39 40 35 31 28 27 35 39
19 24 26 31 31 28 32 33 39 43 48 56 61 64 61 59 66 57 59 58 61 58 57 51 45 48 41 40 37 33 34 33 31 36 35 34 31 36 31 25 21 16 9
19 27 29 30 32 29 41 45 41 40 43 58 62 66 56 60 53 51 50 53 56 55 42 45 41 39 37 35 26 30 29 31 28 27 24 22 23 24 27 19 14 15 14
29 31 30 34 42 50 52 51 40 41 54 57 66 61 63 49 46 49 50 45 51 46 41 36 44 38 35 32 28 24 26 27 26 23 22 15 16 15 14 19 15 14 16
33 41 45 50 52 50 47 43 45 48 42 57 63 59 50 46 51 55 45 42 45 37 35 33 36 32 31 30 28 26 25 27 23 18 17 16 12 12 12 13 17 15 10
41 45 48 48 50 56 54 50 38 43 53 57 54 53 48 54 46 41 40 40 33 32 30 31 28 28 23 24 23 27 26 23 22 20 18 15 15 17 15 12 14 16 16
52 49 52 53 51 50 48 45 43 47 46 47 44 38 44 45 37 32 32 31 29 26 20 24 26 23 26 29 30 30 26 24 22 20 18 11 12 16 13 11 14 15 18
44 53 60 64 66 61 54 47 40 54 40 35 38 36 43 22 22 23 26 28 27 23 25 28 26 24 22 30 29 18 16 19 20 16 13 9 7 10 11 14 14 16 15
56 60 61 64 62 52 48 40 42 31 38 31 29 33 21 20 21 21 20 24 23 21 22 20 17 21 28 27 28 20 21 22 20 17 18 15 12 12 9 12 11 15 19
56 58 59 58 51 50 45 33 24 40 26 29 17 16 18 25 25 23 21 23 19 17 19 18 15 19 24 28 20 27 20 27 29 34 31 35 35 33 30 22 12 9 8
52 52 46 49 44 40 29 25 24 25 17 10 14 19 23 23 20 18 17 17 14 16 17 15 18 17 24 27 23 18 13 24 23 28 22 29 32 30 24 32 29 18 12
48 39 41 41 36 36 34 16 14 9 9 14 18 21 19 22 18 17 20 20 19 19 19 18 18 17 18 20 22 26 17 16 24 21 22 22 20 24 30 31 27 20 23
38 43 39 36 29 22 17 16 20 8 15 16 18 19 21 22 23 20 20 22 20 22 21 18 24 22 24 24 15 16 13 16 20 23 21 20 22 21 22 18 11 16 19
36 34 30 30 25 16 16 11 11 14 15 15 17 20 28 20 28 28 17 21 24 26 26 23 23 22 21 22 19 17 21 20 19 15 18 21 26 31 30 16 15 24 17
34 28 25 22 25 27 14 16 18 20 15 14 18 21 26 23 22 26 23 25 27 30 26 23 24 22 21 24 25 27 22 20 16 18 19 26 27 30 23 21 26 30 22
25 19 16 21 16 16 15 18 20 18 19 22 23 23 29 28 25 25 26 27 31 32 31 28 25 22 21 28 31 28 23 23 15 12 19 22 15 20 25 21 24 32 26
16 12 18 17 15 17 16 16 17 22 20 19 18 19 20 20 24 24 28 27 30 29 30 25 26 24 22 20 24 24 28 24 19 14 17 19 16 20 21 24 29 32 34
9 17 9 12 12 14 17 15 17 19 20 19 17 21 21 15 17 24 28 27 40 32 27 27 31 34 22 21 24 23 20 15 10 9 7 14 21 26 31 32 36 37 39
22 8 11 6 12 14 16 17 19 20 24 20 21 19 21 23 18 23 9 29 33 26 25 25 28 35 30 24 20 19 18 20 18 19 20 25 30 30 32 37 39 41 42
Wind_Direction_850mb
195 190 191 192 172 124 72 25 9 342 351 356 347 339 331 330 327 321 318 314 311 314 309 312 309 308 306 301 303 302 300 303 305 302 297 299 279 275 256 262 257 246 239
185 197 201 204 189 161 15 14 3 340 343 346 341 335 330 323 321 319 314 306 309 304 305 306 303 305 301 301 301 298 297 295 296 298 301 307 301 275 264 254 263 255 248
202 196 205 212 217 269 343 345 350 335 339 335 339 327 323 321 318 312 307 308 303 303 302 300 309 304 303 299 293 297 291 288 291 293 292 299 287 304 287 259 256 246 246
202 201 208 224 237 268 315 328 341 342 339 337 328 322 321 315 309 312 306 303 304 302 306 302 296 297 300 296 299 288 288 283 289 291 289 290 294 295 292 269 258 244 260
197 206 219 227 254 279 295 317 325 331 329 327 323 318 314 311 310 307 304 303 309 303 304 303 305 300 295 293 289 288 286 285 283 282 289 295 302 294 280 278 277 278 252
209 219 230 247 263 281 293 303 314 320 324 322 321 319 315 313 312 309 307 307 303 302 306 302 298 299 297 297 297 292 286 283 288 286 290 290 298 301 301 306 294 281 270
226 235 244 259 268 285 288 304 311 318 321 323 323 321 317 314 314 311 310 307 304 309 301 301 306 308 308 305 301 293 292 285 290 288 287 281 284 290 290 296 293 286 281
251 251 276 284 288 296 306 304 310 315 321 324 323 321 318 316 312 312 305 307 310 308 307 308 312 310 315 307 299 301 296 292 299 300 281 284 279 277 291 293 299 304 301
261 278 287 288 295 294 293 299 307 312 318 323 322 321 318 313 311 308 312 313 315 318 314 315 314 319 314 315 311 314 306 302 304 292 288 281 282 276 270 291 298 303 306
290 282 280 292 304 309 299 304 302 305 320 323 320 319 314 314 310 313 318 316 321 320 319 316 321 322 316 315 304 303 301 311 311 302 300 296 295 296 280 272 293 277 260
316 311 327 315 305 307 309 300 300 314 321 319 320 317 313 312 306 318 315 316 317 321 320 320 319 318 309 314 312 313 309 312 313 318 314 320 319 310 292 278 273 265 263
308 312 308 305 305 319 330 318 314 314 324 318 315 314 308 313 313 318 319 316 318 325 318 314 322 326 321 323 326 312 308 309 309 307 308 311 300 313 300 288 279 268 234
313 314 316 322 323 319 322 307 311 320 320 320 315 305 309 313 321 319 320 314 319 322 329 333 342 341 341 334 330 336 325 315 311 306 297 307 324 309 307 302 295 257 249
319 326 327 323 324 329 323 309 316 318 325 315 310 323 317 320 328 335 329 328 322 333 12 12 15 4 1 359 347 340 348 346 333 327 314 330 307 299 299 330 286 285 258
336 331 326 321 314 317 320 319 318 315 317 312 317 319 321 340 334 333 347 7 18 2 349 324 313 330 355 345 344 345 354 10 11 29 86 44 339 327 317 293 288 273 265
334 327 323 318 317 314 314 316 320 317 315 319 316 317 337 339 335 331 340 348 341 356 358 353 9 17 15 25 28 37 29 12 31 45 36 27 19 6 341 321 305 292 268
331 328 326 322 323 316 312 319 315 312 315 323 347 339 327 327 329 325 333 336 342 3 5 13 30 31 27 18 20 53 44 50 55 63 65 60 52 50 47 33 5 340 333
335 331 332 332 329 330 325 309 317 317 341 15 339 327 331 340 345 347 344 353 358 0 358 2 17 38 23 28 36 36 61 43 56 55 56 55 47 39 34 31 17 38 44
337 334 332 333 333 329 326 342 325 52 7 337 342 348 354 355 4 10 3 4 14 7 5 15 26 26 26 24 25 39 52 42 46 55 66 59 39 38 39 22 15 25 71
335 336 337 346 344 347 357 355 77 16 355 352 354 350 13 13 357 350 358 8 19 10 17 20 44 39 42 31 35 33 39 48 48 55 49 30 22 15 12 32 31 40 64
334 338 348 3 356 3 63 58 8 348 347 357 9 16 20 9 5 9 15 22 21 21 31 34 30 34 32 31 21 28 41 42 50 42 21 16 9 358 359 19 98 90 76
343 348 358 2 70 48 24 3 10 6 8 25 25 23 9 7 6 8 22 18 21 24 25 31 30 29 27 14 29 38 43 36 36 37 25 3 16 18 39 72 103 92 97
342 357 19 83 19 23 25 21 19 30 20 32 33 25 16 15 13 22 29 26 26 21 17 25 27 20 16 7 18 6 10 25 31 40 30 29 45 31 53 77 105 105 105
353 14 90 35 26 31 32 26 20 17 22 25 20 12 3 12 27 28 37 32 24 17 13 13 25 7 13 4 9 8 15 359 7 38 35 27 53 67 80 86 105 119 116
17 103 32 30 46 30 29 22 5 1 0 358 352 7 358 13 37 37 43 29 17 24 34 26 7 357 351 344 350 0 7 10 20 8 37 60 66 71 85 98 108 115 114
103 82 74 26 14 30 19 4 358 354 352 358 13 3 349 10 28 24 7 28 30 30 30 32 28 25 32 29 27 30 42 59 71 73 72 73 76 73 85 100 109 111 115